User: anonymous   Login
Location: Newark
(13.8117°N, 3.6025°W)
Time: 20:26:28
(UTC+00:00)
Language:

Explorer 7 - Orbit

View from above orbital plane
View from above orbital plane
View from above satellite
View from above satellite

Ground track
Ground track

The orbit data is extracted from the following two-line orbital elements,

1    22U 59009A   19237.52707494 -.00000016  00000-0  22005-4 0  9998
2    22  50.2849  55.0108 0140141 204.4197 155.0068 14.94903273180906
Epoch (UTC): 25 August 2019 12:38:59
Eccentricity: 0.0140141
inclination: 50.2849°
perigee height: 485 km
apogee height: 680 km
right ascension of ascending node: 55.0108°
argument of perigee: 204.4197°
revolutions per day: 14.94903273
mean anomaly at epoch: 155.0068°
orbit number at epoch: 18090

The dashed part of the orbit path shows where the satellite is in the earth's shadow,  

DLR